Weather History for KBGR - October, 2014

Change the Weather History Date:

Thursday, October 9, 2014

  Actual Average Record
Temperature  
Mean Temperature 51 °F 50 °F  
Max Temperature 60 °F 60 °F 84 °F (2011)
Min Temperature 41 °F 39 °F 22 °F (1946)
Degree Days  
Heating Degree Days 14 15  
Month to date heating degree days 92 125  
Since 1 July heating degree days 327 397  
Cooling Degree Days 0 0  
Month to date cooling degree days 0 0  
Year to date cooling degree days 361 317  
Moisture  
Dew Point 35 °F    
Average Humidity 58    
Maximum Humidity 83    
Minimum Humidity 33    
Precipitation  
Precipitation 0.00 in 0.14 in 2.68 in (2005)
Month to date precipitation 1.79 1.25  
Year to date precipitation 30.42 31.33  
Snow  
Snow 0.00 in 0.00 in 2.00 in (1988)
Month to date snowfall 0.0 0.0  
Since 1 July snowfall 0.0 0.0  
Since 1 September snowfall 0.0 0.0  
Snow Depth 0.00 in    
Sea Level Pressure  
Sea Level Pressure 29.82 in    
Wind  
Wind Speed 6 mph (WSW)    
Max Wind Speed 21 mph    
Max Gust Speed 28 mph    
Visibility 10 miles    
Events      
T = Trace of Precipitation, MM = Missing Value Source: NWS Daily Summary

Daily Weather History Graph

Daily Weather History Graph

Search for Another Location

Airport or City:

Trip Planner

Search our weather history database for the weather conditions in past years. The results will help you decide how hot, cold, wet, or windy it might be!

Date:

Astronomy

Oct. 09, 2014 Rise Set
Actual Time 6:43 AM EDT 6:01 PM EDT
Civil Twilight 6:13 AM EDT 6:30 PM EDT
Nautical Twilight 5:39 AM EDT 7:04 PM EDT
Astronomical Twilight 5:05 AM EDT 7:38 PM EDT
Moon 6:50 PM EDT (10/9) 7:57 AM EDT (10/9)
Length of Visible Light 12h 16m
Length of Day
11h 18m
Full, 98% of the Moon is Illuminated
Oct 9
Full
Oct 15
Last Quarter
Oct 23
New
Oct 30
First Quarter
Nov 6
Full

Hourly Weather History & Observations

Time (EDT) Temp. Windchill Dew Point Humidity Pressure Visibility Wind Dir Wind Speed Gust Speed Precip Events Conditions
12:53 AM 54.0 °F - 41.0 °F 62% 29.75 in 10.0 mi SW 5.8 mph - N/A   Mostly Cloudy
1:53 AM 54.0 °F - 39.9 °F 59% 29.75 in 10.0 mi West 3.5 mph - N/A   Mostly Cloudy
2:53 AM 51.1 °F - 41.0 °F 68% 29.75 in 10.0 mi SW 3.5 mph - N/A   Mostly Cloudy
3:53 AM 48.0 °F - 39.9 °F 74% 29.76 in 10.0 mi SW 3.5 mph - N/A   Partly Cloudy
4:53 AM 45.0 °F - 39.0 °F 80% 29.76 in 10.0 mi Calm Calm - N/A   Clear
5:53 AM 42.1 °F - 37.9 °F 85% 29.80 in 10.0 mi Calm Calm - N/A   Partly Cloudy
6:53 AM 42.1 °F 40.2 °F 37.9 °F 85% 29.82 in 10.0 mi SSW 3.5 mph - N/A   Partly Cloudy
7:53 AM 46.9 °F - 39.0 °F 74% 29.83 in 10.0 mi SSW 5.8 mph - N/A   Partly Cloudy
8:53 AM 52.0 °F - 36.0 °F 54% 29.84 in 10.0 mi WSW 11.5 mph 18.4 mph N/A   Clear
9:53 AM 55.0 °F - 35.1 °F 47% 29.85 in 10.0 mi West 11.5 mph 19.6 mph N/A   Partly Cloudy
10:53 AM 55.9 °F - 35.1 °F 45% 29.84 in 10.0 mi SW 17.3 mph 25.3 mph N/A   Scattered Clouds
11:53 AM 55.9 °F - 34.0 °F 44% 29.83 in 10.0 mi WSW 12.7 mph 17.3 mph N/A   Mostly Cloudy
12:53 PM 57.9 °F - 35.1 °F 42% 29.81 in 9.0 mi WSW 9.2 mph - N/A   Scattered Clouds
1:53 PM 57.0 °F - 30.9 °F 37% 29.80 in 10.0 mi WSW 9.2 mph - N/A   Scattered Clouds
2:53 PM 59.0 °F - 32.0 °F 36% 29.79 in 10.0 mi WSW 11.5 mph - N/A   Scattered Clouds
3:53 PM 59.0 °F - 30.0 °F 33% 29.79 in 10.0 mi WSW 10.4 mph - N/A   Mostly Cloudy
4:53 PM 57.9 °F - 30.0 °F 35% 29.80 in 10.0 mi WSW 13.8 mph - N/A   Mostly Cloudy
5:53 PM 55.0 °F - 30.9 °F 40% 29.81 in 10.0 mi SW 5.8 mph - N/A   Scattered Clouds
6:53 PM 54.0 °F - 33.1 °F 45% 29.83 in 10.0 mi SSW 6.9 mph - N/A   Overcast
7:53 PM 51.1 °F - 34.0 °F 52% 29.85 in 10.0 mi SW 5.8 mph - N/A   Scattered Clouds
8:53 PM 50.0 °F - 33.1 °F 52% 29.86 in 10.0 mi WSW 6.9 mph - N/A   Partly Cloudy
9:53 PM 46.9 °F - 35.1 °F 63% 29.87 in 10.0 mi SW 3.5 mph - N/A   Partly Cloudy
10:53 PM 46.9 °F - 35.1 °F 63% 29.89 in 10.0 mi West 4.6 mph - N/A   Partly Cloudy
11:53 PM 46.9 °F - 35.1 °F 63% 29.90 in 10.0 mi West 6.9 mph - N/A   Partly Cloudy